Location: Miles
(41.4492°N, 81.6087°W)
Time: 07:09:33
(UTC+00:00)

Vanguard 1 Rocket - Pass Details

Date: 11 September 2024
Orbit: 650 x 4218 km, 34.3° (Epoch: 05 October)

Event Time Altitude Azimuth Distance (km) Brightness Sun altitude
Rises 07:46:02 0° 201° (SSW) 5,295 - -33.8°
Reaches altitude 10° 07:49:29 10° 191° (SSW) 4,731 - -33.4°
Exits shadow 07:54:17 23° 173° (S) 4,275 10.4 -32.7°
Maximum altitude 08:01:52 33° 134° (SE) 4,432 10.8 -31.7°
Drops below altitude 10° 08:20:48 10° 81° (E) 7,261 12.7 -28.9°
Sets 08:27:50 0° 74° (ENE) 8,453 13.4 -27.9°
